Location: B�rgermoos
(47.6500°N, 9.0667°E)
Time: 05:55:06
(UTC+00:00)

Cosmos 1269 Rocket - Pass Details

Date: 18 September 2020
Orbit: 772 x 780 km, 74.1° (Epoch: 22 October)

Event Time Altitude Azimuth Distance (km) Brightness Sun altitude
Rises 19:33:18 0° 341° (NNW) 3,274 8.0 -20.9°
Reaches altitude 10° 19:35:48 10° 347° (NNW) 2,343 7.0 -21.3°
Maximum altitude 19:40:55 47° 61° (ENE) 1,033 4.4 -22.1°
Enters shadow 19:41:30 45° 81° (E) 1,059 4.3 -22.1°
